Year,Month,Day,Hour,Minute,Value (Times are PST for temperature in C)
2015,02,21,00,00,4.40
2015,02,21,00,01,4.40
2015,02,21,00,02,4.40
2015,02,21,00,03,4.30
2015,02,21,00,04,4.30
2015,02,21,00,05,4.20
2015,02,21,00,06,4.20
2015,02,21,00,07,4.20
2015,02,21,00,08,4.20
2015,02,21,00,09,4.20
2015,02,21,00,10,4.10
2015,02,21,00,11,4.10
2015,02,21,00,12,4.10
2015,02,21,00,13,4.10
2015,02,21,00,14,4.00
2015,02,21,00,15,4.00
2015,02,21,00,16,4.00
2015,02,21,00,17,3.90
2015,02,21,00,18,3.90
2015,02,21,00,19,3.80
2015,02,21,00,20,3.80
2015,02,21,00,21,3.80
2015,02,21,00,22,3.80
2015,02,21,00,23,3.70
2015,02,21,00,24,3.70
2015,02,21,00,25,3.70
2015,02,21,00,26,3.70
2015,02,21,00,27,3.70
2015,02,21,00,28,3.60
2015,02,21,00,29,3.60
2015,02,21,00,30,3.60
2015,02,21,00,31,3.50
2015,02,21,00,32,3.50
2015,02,21,00,33,3.50
2015,02,21,00,34,3.40
2015,02,21,00,35,3.40
2015,02,21,00,36,3.40
2015,02,21,00,37,3.40
2015,02,21,00,38,3.30
2015,02,21,00,39,3.30
2015,02,21,00,40,3.30
2015,02,21,00,41,3.30
2015,02,21,00,42,3.20
2015,02,21,00,43,3.20
2015,02,21,00,44,3.20
2015,02,21,00,45,3.20
2015,02,21,00,46,3.10
2015,02,21,00,47,3.10
2015,02,21,00,48,3.10
2015,02,21,00,49,3.00
2015,02,21,00,50,3.00
2015,02,21,00,51,3.00
2015,02,21,00,52,3.00
2015,02,21,00,53,2.90
2015,02,21,00,54,2.90
2015,02,21,00,55,2.90
2015,02,21,00,56,2.90
2015,02,21,00,57,2.80
2015,02,21,00,58,2.80
2015,02,21,00,59,2.80
2015,02,21,01,00,2.80
2015,02,21,01,01,2.70
2015,02,21,01,02,2.70
2015,02,21,01,03,2.70
2015,02,21,01,04,2.70
2015,02,21,01,05,2.70
2015,02,21,01,06,2.70
2015,02,21,01,07,2.70
2015,02,21,01,08,2.60
2015,02,21,01,09,2.60
2015,02,21,01,10,2.60
2015,02,21,01,11,2.60
2015,02,21,01,12,2.50
2015,02,21,01,13,2.50
2015,02,21,01,14,2.40
2015,02,21,01,15,2.40
2015,02,21,01,16,2.40
2015,02,21,01,17,2.40
2015,02,21,01,18,2.40
2015,02,21,01,19,2.30
2015,02,21,01,20,2.30
2015,02,21,01,21,2.30
2015,02,21,01,22,2.30
2015,02,21,01,23,2.30
2015,02,21,01,24,2.20
2015,02,21,01,25,2.20
2015,02,21,01,26,2.20
2015,02,21,01,27,2.20
2015,02,21,01,28,2.20
2015,02,21,01,29,2.20
2015,02,21,01,30,2.10
2015,02,21,01,31,2.10
2015,02,21,01,32,2.10
2015,02,21,01,33,2.10
2015,02,21,01,34,2.10
2015,02,21,01,35,2.00
2015,02,21,01,36,2.00
2015,02,21,01,37,2.00
2015,02,21,01,38,1.90
2015,02,21,01,39,1.90
2015,02,21,01,40,1.90
2015,02,21,01,41,1.90
2015,02,21,01,42,1.80
2015,02,21,01,43,1.80
2015,02,21,01,44,1.80
2015,02,21,01,45,1.80
2015,02,21,01,46,1.80
2015,02,21,01,47,1.80
2015,02,21,01,48,1.80
2015,02,21,01,49,1.70
2015,02,21,01,50,1.70
2015,02,21,01,51,1.70
2015,02,21,01,52,1.70
2015,02,21,01,53,1.70
2015,02,21,01,54,1.70
2015,02,21,01,55,1.70
2015,02,21,01,56,1.60
2015,02,21,01,57,1.60
2015,02,21,01,58,1.60
2015,02,21,01,59,1.50
2015,02,21,02,00,1.50
2015,02,21,02,01,1.50
2015,02,21,02,02,1.50
2015,02,21,02,03,1.40
2015,02,21,02,04,1.40
2015,02,21,02,05,1.40
2015,02,21,02,06,1.40
2015,02,21,02,07,1.40
2015,02,21,02,08,1.30
2015,02,21,02,09,1.30
2015,02,21,02,10,1.30
2015,02,21,02,11,1.30
2015,02,21,02,12,1.30
2015,02,21,02,13,1.30
2015,02,21,02,14,1.30
2015,02,21,02,15,1.30
2015,02,21,02,16,1.30
2015,02,21,02,17,1.30
2015,02,21,02,18,1.30
2015,02,21,02,19,1.30
2015,02,21,02,20,1.30
2015,02,21,02,21,1.30
2015,02,21,02,22,1.30
2015,02,21,02,23,1.30
2015,02,21,02,24,1.30
2015,02,21,02,25,1.30
2015,02,21,02,26,1.20
2015,02,21,02,27,1.20
2015,02,21,02,28,1.20
2015,02,21,02,29,1.20
2015,02,21,02,30,1.20
2015,02,21,02,31,1.20
2015,02,21,02,32,1.20
2015,02,21,02,33,1.20
2015,02,21,02,34,1.10
2015,02,21,02,35,1.10
2015,02,21,02,36,1.10
2015,02,21,02,37,1.10
2015,02,21,02,38,1.10
2015,02,21,02,39,1.00
2015,02,21,02,40,1.00
2015,02,21,02,41,1.00
2015,02,21,02,42,1.00
2015,02,21,02,43,1.00
2015,02,21,02,44,1.00
2015,02,21,02,45,1.00
2015,02,21,02,46,1.00
2015,02,21,02,47,1.00
2015,02,21,02,48,1.00
2015,02,21,02,49,1.00
2015,02,21,02,50,0.90
2015,02,21,02,51,0.90
2015,02,21,02,52,0.90
2015,02,21,02,53,0.90
2015,02,21,02,54,0.90
2015,02,21,02,55,0.90
2015,02,21,02,56,0.90
2015,02,21,02,57,0.90
2015,02,21,02,58,0.90
2015,02,21,02,59,0.90
2015,02,21,03,00,0.90
2015,02,21,03,01,0.80
2015,02,21,03,02,0.80
2015,02,21,03,03,0.80
2015,02,21,03,04,0.80
2015,02,21,03,05,0.80
2015,02,21,03,06,0.80
2015,02,21,03,07,0.80
2015,02,21,03,08,0.80
2015,02,21,03,09,0.80
2015,02,21,03,10,0.80
2015,02,21,03,11,0.80
2015,02,21,03,12,0.80
2015,02,21,03,13,0.80
2015,02,21,03,14,0.80
2015,02,21,03,15,0.80
2015,02,21,03,16,0.80
2015,02,21,03,17,0.80
2015,02,21,03,18,0.80
2015,02,21,03,19,0.80
2015,02,21,03,20,0.80
2015,02,21,03,21,0.80
2015,02,21,03,22,0.80
2015,02,21,03,23,0.80
2015,02,21,03,24,0.80
2015,02,21,03,25,0.80
2015,02,21,03,26,0.80
2015,02,21,03,27,0.80
2015,02,21,03,28,0.80
2015,02,21,03,29,0.80
2015,02,21,03,30,0.80
2015,02,21,03,31,0.80
2015,02,21,03,32,0.80
2015,02,21,03,33,0.90
2015,02,21,03,34,0.90
2015,02,21,03,35,0.90
2015,02,21,03,36,0.90
2015,02,21,03,37,0.90
2015,02,21,03,38,0.90
2015,02,21,03,39,0.90
2015,02,21,03,40,0.90
2015,02,21,03,41,0.90
2015,02,21,03,42,0.90
2015,02,21,03,43,0.90
2015,02,21,03,44,0.90
2015,02,21,03,45,0.90
2015,02,21,03,46,0.90
2015,02,21,03,47,0.90
2015,02,21,03,48,0.90
2015,02,21,03,49,0.90
2015,02,21,03,50,0.90
2015,02,21,03,51,0.90
2015,02,21,03,52,0.90
2015,02,21,03,53,0.90
2015,02,21,03,54,0.90
2015,02,21,03,55,0.90
2015,02,21,03,56,0.90
2015,02,21,03,57,0.90
2015,02,21,03,58,0.90
2015,02,21,03,59,0.90
2015,02,21,04,00,0.90
2015,02,21,04,01,0.90
2015,02,21,04,02,0.90
2015,02,21,04,03,0.90
2015,02,21,04,04,0.80
2015,02,21,04,05,0.80
2015,02,21,04,06,0.80
2015,02,21,04,07,0.80
2015,02,21,04,08,0.80
2015,02,21,04,09,0.80
2015,02,21,04,10,0.80
2015,02,21,04,11,0.80
2015,02,21,04,12,0.80
2015,02,21,04,13,0.70
2015,02,21,04,14,0.70
2015,02,21,04,15,0.70
2015,02,21,04,16,0.70
2015,02,21,04,17,0.70
2015,02,21,04,18,0.70
2015,02,21,04,19,0.70
2015,02,21,04,20,0.70
2015,02,21,04,21,0.70
2015,02,21,04,22,0.70
2015,02,21,04,23,0.70
2015,02,21,04,24,0.60
2015,02,21,04,25,0.60
2015,02,21,04,26,0.60
2015,02,21,04,27,0.60
2015,02,21,04,28,0.60
2015,02,21,04,29,0.60
2015,02,21,04,30,0.60
2015,02,21,04,31,0.60
2015,02,21,04,32,0.60
2015,02,21,04,33,0.60
2015,02,21,04,34,0.50
2015,02,21,04,35,0.50
2015,02,21,04,36,0.50
2015,02,21,04,37,0.50
2015,02,21,04,38,0.50
2015,02,21,04,39,0.40
2015,02,21,04,40,0.40
2015,02,21,04,41,0.40
2015,02,21,04,42,0.40
2015,02,21,04,43,0.40
2015,02,21,04,44,0.40
2015,02,21,04,45,0.40
2015,02,21,04,46,0.30
2015,02,21,04,47,0.30
2015,02,21,04,48,0.30
2015,02,21,04,49,0.30
2015,02,21,04,50,0.30
2015,02,21,04,51,0.30
2015,02,21,04,52,0.20
2015,02,21,04,53,0.20
2015,02,21,04,54,0.20
2015,02,21,04,55,0.20
2015,02,21,04,56,0.20
2015,02,21,04,57,0.20
2015,02,21,04,58,0.20
2015,02,21,04,59,0.20
2015,02,21,05,00,0.20
2015,02,21,05,01,0.20
2015,02,21,05,02,0.20
2015,02,21,05,03,0.20
2015,02,21,05,04,0.20
2015,02,21,05,05,0.10
2015,02,21,05,06,0.10
2015,02,21,05,07,0.10
2015,02,21,05,08,0.10
2015,02,21,05,09,0.10
2015,02,21,05,10,0.10
2015,02,21,05,11,0.10
2015,02,21,05,12,0.10
2015,02,21,05,13,0.10
2015,02,21,05,14,0.10
2015,02,21,05,15,0.10
2015,02,21,05,16,0.10
2015,02,21,05,17,0.10
2015,02,21,05,18,0.00
2015,02,21,05,19,0.00
2015,02,21,05,20,0.00
2015,02,21,05,21,0.00
2015,02,21,05,22,0.00
2015,02,21,05,23,-0.10
2015,02,21,05,24,-0.10
2015,02,21,05,25,-0.10
2015,02,21,05,26,-0.10
2015,02,21,05,27,-0.10
2015,02,21,05,28,-0.10
2015,02,21,05,29,-0.10
2015,02,21,05,30,-0.10
2015,02,21,05,31,-0.10
2015,02,21,05,32,-0.10
2015,02,21,05,33,-0.10
2015,02,21,05,34,-0.10
2015,02,21,05,35,-0.10
2015,02,21,05,36,-0.10
2015,02,21,05,37,-0.10
2015,02,21,05,38,-0.10
2015,02,21,05,39,-0.10
2015,02,21,05,40,-0.10
2015,02,21,05,41,-0.10
2015,02,21,05,42,-0.20
2015,02,21,05,43,-0.20
2015,02,21,05,44,-0.10
2015,02,21,05,45,-0.10
2015,02,21,05,46,-0.10
2015,02,21,05,47,-0.10
2015,02,21,05,48,-0.10
2015,02,21,05,49,-0.10
2015,02,21,05,50,-0.10
2015,02,21,05,51,-0.10
2015,02,21,05,52,-0.10
2015,02,21,05,53,-0.10
2015,02,21,05,54,0.00
2015,02,21,05,55,0.00
2015,02,21,05,56,0.00
2015,02,21,05,57,0.00
2015,02,21,05,58,-0.10
2015,02,21,05,59,-0.10
2015,02,21,06,00,-0.10
2015,02,21,06,01,-0.10
2015,02,21,06,02,-0.10
2015,02,21,06,03,-0.10
2015,02,21,06,04,-0.10
2015,02,21,06,05,-0.10
2015,02,21,06,06,-0.10
2015,02,21,06,07,-0.10
2015,02,21,06,08,-0.10
2015,02,21,06,09,-0.10
2015,02,21,06,10,-0.20
2015,02,21,06,11,-0.20
2015,02,21,06,12,-0.20
2015,02,21,06,13,-0.20
2015,02,21,06,14,-0.20
2015,02,21,06,15,-0.30
2015,02,21,06,16,-0.30
2015,02,21,06,17,-0.30
2015,02,21,06,18,-0.30
2015,02,21,06,19,-0.30
2015,02,21,06,20,-0.30
2015,02,21,06,21,-0.30
2015,02,21,06,22,-0.40
2015,02,21,06,23,-0.40
2015,02,21,06,24,-0.40
2015,02,21,06,25,-0.40
2015,02,21,06,26,-0.40
2015,02,21,06,27,-0.40
2015,02,21,06,28,-0.40
2015,02,21,06,29,-0.40
2015,02,21,06,30,-0.40
2015,02,21,06,31,-0.40
2015,02,21,06,32,-0.40
2015,02,21,06,33,-0.40
2015,02,21,06,34,-0.40
2015,02,21,06,35,-0.40
2015,02,21,06,36,-0.40
2015,02,21,06,37,-0.40
2015,02,21,06,38,-0.40
2015,02,21,06,39,-0.40
2015,02,21,06,40,-0.40
2015,02,21,06,41,-0.40
2015,02,21,06,42,-0.40
2015,02,21,06,43,-0.40
2015,02,21,06,44,-0.40
2015,02,21,06,45,-0.40
2015,02,21,06,46,-0.30
2015,02,21,06,47,-0.30
2015,02,21,06,48,-0.30
2015,02,21,06,49,-0.30
2015,02,21,06,50,-0.30
2015,02,21,06,51,-0.30
2015,02,21,06,52,-0.30
2015,02,21,06,53,-0.30
2015,02,21,06,54,-0.30
2015,02,21,06,55,-0.30
2015,02,21,06,56,-0.30
2015,02,21,06,57,-0.20
2015,02,21,06,58,-0.20
2015,02,21,06,59,-0.20
2015,02,21,07,00,-0.20
2015,02,21,07,01,-0.20
2015,02,21,07,02,-0.10
2015,02,21,07,03,-0.10
2015,02,21,07,04,-0.10
2015,02,21,07,05,-0.20
2015,02,21,07,06,-0.10
2015,02,21,07,07,-0.10
2015,02,21,07,08,-0.10
2015,02,21,07,09,-0.10
2015,02,21,07,10,-0.20
2015,02,21,07,11,-0.20
2015,02,21,07,12,-0.20
2015,02,21,07,13,-0.20
2015,02,21,07,14,-0.10
2015,02,21,07,15,-0.10
2015,02,21,07,16,-0.10
2015,02,21,07,17,-0.10
2015,02,21,07,18,-0.10
2015,02,21,07,19,-0.10
2015,02,21,07,20,-0.10
2015,02,21,07,21,0.00
2015,02,21,07,22,0.00
2015,02,21,07,23,0.10
2015,02,21,07,24,0.10
2015,02,21,07,25,0.10
2015,02,21,07,26,0.10
2015,02,21,07,27,0.10
2015,02,21,07,28,0.20
2015,02,21,07,29,0.20
2015,02,21,07,30,0.20
2015,02,21,07,31,0.30
2015,02,21,07,32,0.30
2015,02,21,07,33,0.30
2015,02,21,07,34,0.40
2015,02,21,07,35,0.40
2015,02,21,07,36,0.40
2015,02,21,07,37,0.50
2015,02,21,07,38,0.50
2015,02,21,07,39,0.50
2015,02,21,07,40,0.60
2015,02,21,07,41,0.60
2015,02,21,07,42,0.60
2015,02,21,07,43,0.70
2015,02,21,07,44,0.70
2015,02,21,07,45,0.70
2015,02,21,07,46,0.70
2015,02,21,07,47,0.80
2015,02,21,07,48,0.80
2015,02,21,07,49,0.80
2015,02,21,07,50,0.90
2015,02,21,07,51,0.90
2015,02,21,07,52,0.90
2015,02,21,07,53,1.00
2015,02,21,07,54,1.00
2015,02,21,07,55,1.10
2015,02,21,07,56,1.10
2015,02,21,07,57,1.20
2015,02,21,07,58,1.20
2015,02,21,07,59,1.30
2015,02,21,08,00,1.30
2015,02,21,08,01,1.30
2015,02,21,08,02,1.30
2015,02,21,08,03,1.30
2015,02,21,08,04,1.40
2015,02,21,08,05,1.40
2015,02,21,08,06,1.50
2015,02,21,08,07,1.50
2015,02,21,08,08,1.60
2015,02,21,08,09,1.60
2015,02,21,08,10,1.70
2015,02,21,08,11,1.70
2015,02,21,08,12,1.80
2015,02,21,08,13,1.80
2015,02,21,08,14,1.80
2015,02,21,08,15,1.80
2015,02,21,08,16,1.80
2015,02,21,08,17,1.90
2015,02,21,08,18,1.90
2015,02,21,08,19,1.90
2015,02,21,08,20,1.90
2015,02,21,08,21,1.90
2015,02,21,08,22,1.90
2015,02,21,08,23,1.90
2015,02,21,08,24,2.00
2015,02,21,08,25,2.00
2015,02,21,08,26,2.00
2015,02,21,08,27,2.00
2015,02,21,08,28,2.00
2015,02,21,08,29,2.00
2015,02,21,08,30,2.00
2015,02,21,08,31,2.00
2015,02,21,08,32,2.10
2015,02,21,08,33,2.10
2015,02,21,08,34,2.10
2015,02,21,08,35,2.10
2015,02,21,08,36,2.10
2015,02,21,08,37,2.10
2015,02,21,08,38,2.10
2015,02,21,08,39,2.10
2015,02,21,08,40,2.10
2015,02,21,08,41,2.20
2015,02,21,08,42,2.20
2015,02,21,08,43,2.20
2015,02,21,08,44,2.20
2015,02,21,08,45,2.20
2015,02,21,08,46,2.30
2015,02,21,08,47,2.30
2015,02,21,08,48,2.30
2015,02,21,08,49,2.40
2015,02,21,08,50,2.40
2015,02,21,08,51,2.40
2015,02,21,08,52,2.40
2015,02,21,08,53,2.50
2015,02,21,08,54,2.50
2015,02,21,08,55,2.60
2015,02,21,08,56,2.60
2015,02,21,08,57,2.60
2015,02,21,08,58,2.60
2015,02,21,08,59,2.60
2015,02,21,09,00,2.70
2015,02,21,09,01,2.70
2015,02,21,09,02,2.60
2015,02,21,09,03,2.60
2015,02,21,09,04,2.60
2015,02,21,09,05,2.60
2015,02,21,09,06,2.60
2015,02,21,09,07,2.70
2015,02,21,09,08,2.70
2015,02,21,09,09,2.70
2015,02,21,09,10,2.70
2015,02,21,09,11,2.70
2015,02,21,09,12,2.70
2015,02,21,09,13,2.70
2015,02,21,09,14,2.80
2015,02,21,09,15,2.80
2015,02,21,09,16,2.80
2015,02,21,09,17,2.80
2015,02,21,09,18,2.80
2015,02,21,09,19,2.80
2015,02,21,09,20,2.80
2015,02,21,09,21,2.80
2015,02,21,09,22,2.80
2015,02,21,09,23,2.90
2015,02,21,09,24,2.90
2015,02,21,09,25,2.90
2015,02,21,09,26,2.90
2015,02,21,09,27,2.90
2015,02,21,09,28,2.90
2015,02,21,09,29,2.90
2015,02,21,09,30,2.90
2015,02,21,09,31,2.90
2015,02,21,09,32,2.90
2015,02,21,09,33,2.90
2015,02,21,09,34,2.90
2015,02,21,09,35,2.90
2015,02,21,09,36,2.90
2015,02,21,09,37,2.90
2015,02,21,09,38,3.00
2015,02,21,09,39,3.00
2015,02,21,09,40,3.10
2015,02,21,09,41,3.10
2015,02,21,09,42,3.10
2015,02,21,09,43,3.20
2015,02,21,09,44,3.20
2015,02,21,09,45,3.20
2015,02,21,09,46,3.20
2015,02,21,09,47,3.10
2015,02,21,09,48,3.10
2015,02,21,09,49,3.10
2015,02,21,09,50,3.10
2015,02,21,09,51,3.10
2015,02,21,09,52,3.20
2015,02,21,09,53,3.20
2015,02,21,09,54,3.20
2015,02,21,09,55,3.20
2015,02,21,09,56,3.20
2015,02,21,09,57,3.20
2015,02,21,09,58,3.20
2015,02,21,09,59,3.20
2015,02,21,10,00,3.30
2015,02,21,10,01,3.30
2015,02,21,10,02,3.30
2015,02,21,10,03,3.30
2015,02,21,10,04,3.40
2015,02,21,10,05,3.30
2015,02,21,10,06,3.30
2015,02,21,10,07,3.40
2015,02,21,10,08,3.40
2015,02,21,10,09,3.40
2015,02,21,10,10,3.40
2015,02,21,10,11,3.40
2015,02,21,10,12,3.50
2015,02,21,10,13,3.50
2015,02,21,10,14,3.60
2015,02,21,10,15,3.60
2015,02,21,10,16,3.60
2015,02,21,10,17,3.70
2015,02,21,10,18,3.80
2015,02,21,10,19,3.80
2015,02,21,10,20,3.90
2015,02,21,10,21,3.90
2015,02,21,10,22,4.00
2015,02,21,10,23,4.00
2015,02,21,10,24,4.10
2015,02,21,10,25,4.20
2015,02,21,10,26,4.30
2015,02,21,10,27,4.40
2015,02,21,10,28,4.50
2015,02,21,10,29,4.60
2015,02,21,10,30,4.70
2015,02,21,10,31,4.70
2015,02,21,10,32,4.70
2015,02,21,10,33,4.80
2015,02,21,10,34,4.70
2015,02,21,10,35,4.70
2015,02,21,10,36,4.70
2015,02,21,10,37,4.70
2015,02,21,10,38,4.70
2015,02,21,10,39,4.80
2015,02,21,10,40,4.80
2015,02,21,10,41,4.90
2015,02,21,10,42,4.90
2015,02,21,10,43,4.90
2015,02,21,10,44,5.00
2015,02,21,10,45,5.10
2015,02,21,10,46,5.10
2015,02,21,10,47,5.20
2015,02,21,10,48,5.30
2015,02,21,10,49,5.40
2015,02,21,10,50,5.40
2015,02,21,10,51,5.50
2015,02,21,10,52,5.60
2015,02,21,10,53,5.60
2015,02,21,10,54,5.70
2015,02,21,10,55,5.70
2015,02,21,10,56,5.70
2015,02,21,10,57,5.80
2015,02,21,10,58,5.80
2015,02,21,10,59,5.80
2015,02,21,11,00,5.80
2015,02,21,11,01,5.90
2015,02,21,11,02,6.00
2015,02,21,11,03,6.10
2015,02,21,11,04,6.20
2015,02,21,11,05,6.20
2015,02,21,11,06,6.30
2015,02,21,11,07,6.40
2015,02,21,11,08,6.40
2015,02,21,11,09,6.50
2015,02,21,11,10,6.60
2015,02,21,11,11,6.60
2015,02,21,11,12,6.70
2015,02,21,11,13,6.70
2015,02,21,11,14,6.80
2015,02,21,11,15,6.90
2015,02,21,11,16,7.00
2015,02,21,11,17,7.10
2015,02,21,11,18,7.20
2015,02,21,11,19,7.30
2015,02,21,11,20,7.40
2015,02,21,11,21,7.50
2015,02,21,11,22,7.60
2015,02,21,11,23,7.60
2015,02,21,11,24,7.70
2015,02,21,11,25,7.70
2015,02,21,11,26,7.80
2015,02,21,11,27,7.90
2015,02,21,11,28,7.90
2015,02,21,11,29,8.00
2015,02,21,11,30,8.20
2015,02,21,11,31,8.20
2015,02,21,11,32,8.30
2015,02,21,11,33,8.40
2015,02,21,11,34,8.50
2015,02,21,11,35,8.60
2015,02,21,11,36,8.70
2015,02,21,11,37,8.80
2015,02,21,11,38,8.90
2015,02,21,11,39,9.10
2015,02,21,11,40,9.20
2015,02,21,11,41,9.30
2015,02,21,11,42,9.40
2015,02,21,11,43,9.50
2015,02,21,11,44,9.50
2015,02,21,11,45,9.60
2015,02,21,11,46,9.70
2015,02,21,11,47,9.80
2015,02,21,11,48,9.80
2015,02,21,11,49,9.90
2015,02,21,11,50,9.90
2015,02,21,11,51,10.00
2015,02,21,11,52,10.10
2015,02,21,11,53,10.10
2015,02,21,11,54,10.10
2015,02,21,11,55,10.20
2015,02,21,11,56,10.20
2015,02,21,11,57,10.20
2015,02,21,11,58,10.30
2015,02,21,11,59,10.30
2015,02,21,12,00,10.40
2015,02,21,12,01,10.50
2015,02,21,12,02,10.60
2015,02,21,12,03,10.70
2015,02,21,12,04,10.80
2015,02,21,12,05,10.90
2015,02,21,12,06,10.90
2015,02,21,12,07,11.00
2015,02,21,12,08,11.10
2015,02,21,12,09,11.10
2015,02,21,12,10,11.10
2015,02,21,12,11,11.10
2015,02,21,12,12,11.20
2015,02,21,12,13,11.20
2015,02,21,12,14,11.20
2015,02,21,12,15,11.20
2015,02,21,12,16,11.30
2015,02,21,12,17,11.30
2015,02,21,12,18,11.30
2015,02,21,12,19,11.30
2015,02,21,12,20,11.30
2015,02,21,12,21,11.30
2015,02,21,12,22,11.40
2015,02,21,12,23,11.40
2015,02,21,12,24,11.50
2015,02,21,12,25,11.50
2015,02,21,12,26,11.50
2015,02,21,12,27,11.50
2015,02,21,12,28,11.50
2015,02,21,12,29,11.50
2015,02,21,12,30,11.40
2015,02,21,12,31,11.30
2015,02,21,12,32,11.30
2015,02,21,12,33,11.30
2015,02,21,12,34,11.40
2015,02,21,12,35,11.40
2015,02,21,12,36,11.30
2015,02,21,12,37,11.30
2015,02,21,12,38,11.30
2015,02,21,12,39,11.30
2015,02,21,12,40,11.30
2015,02,21,12,41,11.30
2015,02,21,12,42,11.30
2015,02,21,12,43,11.30
2015,02,21,12,44,11.20
2015,02,21,12,45,11.20
2015,02,21,12,46,11.10
2015,02,21,12,47,11.10
2015,02,21,12,48,11.10
2015,02,21,12,49,11.10
2015,02,21,12,50,11.10
2015,02,21,12,51,11.20
2015,02,21,12,52,11.20
2015,02,21,12,53,11.30
2015,02,21,12,54,11.30
2015,02,21,12,55,11.40
2015,02,21,12,56,11.40
2015,02,21,12,57,11.50
2015,02,21,12,58,11.60
2015,02,21,12,59,11.60
2015,02,21,13,00,11.60
2015,02,21,13,01,11.60
2015,02,21,13,02,11.60
2015,02,21,13,03,11.60
2015,02,21,13,04,11.70
2015,02,21,13,05,11.70
2015,02,21,13,06,11.70
2015,02,21,13,07,11.70
2015,02,21,13,08,11.70
2015,02,21,13,09,11.60
2015,02,21,13,10,11.60
2015,02,21,13,11,11.60
2015,02,21,13,12,11.70
2015,02,21,13,13,11.70
2015,02,21,13,14,11.70
2015,02,21,13,15,11.70
2015,02,21,13,16,11.70
2015,02,21,13,17,11.70
2015,02,21,13,18,11.70
2015,02,21,13,19,11.80
2015,02,21,13,20,11.80
2015,02,21,13,21,11.80
2015,02,21,13,22,11.80
2015,02,21,13,23,11.90
2015,02,21,13,24,11.90
2015,02,21,13,25,11.90
2015,02,21,13,26,11.80
2015,02,21,13,27,11.80
2015,02,21,13,28,11.80
2015,02,21,13,29,11.80
2015,02,21,13,30,11.80
2015,02,21,13,31,11.70
2015,02,21,13,32,11.70
2015,02,21,13,33,11.80
2015,02,21,13,34,11.80
2015,02,21,13,35,11.80
2015,02,21,13,36,11.90
2015,02,21,13,37,11.90
2015,02,21,13,38,11.80
2015,02,21,13,39,11.70
2015,02,21,13,40,11.70
2015,02,21,13,41,11.70
2015,02,21,13,42,11.60
2015,02,21,13,43,11.60
2015,02,21,13,44,11.60
2015,02,21,13,45,11.60
2015,02,21,13,46,11.60
2015,02,21,13,47,11.60
2015,02,21,13,48,11.70
2015,02,21,13,49,11.80
2015,02,21,13,50,11.90
2015,02,21,13,51,11.90
2015,02,21,13,52,12.00
2015,02,21,13,53,12.10
2015,02,21,13,54,12.10
2015,02,21,13,55,12.20
2015,02,21,13,56,12.20
2015,02,21,13,57,12.20
2015,02,21,13,58,12.20
2015,02,21,13,59,12.10
2015,02,21,14,00,12.10
2015,02,21,14,01,12.10
2015,02,21,14,02,12.10
2015,02,21,14,03,12.10
2015,02,21,14,04,12.10
2015,02,21,14,05,12.10
2015,02,21,14,06,12.10
2015,02,21,14,07,12.10
2015,02,21,14,08,12.10
2015,02,21,14,09,12.10
2015,02,21,14,10,12.10
2015,02,21,14,11,12.10
2015,02,21,14,12,12.20
2015,02,21,14,13,12.20
2015,02,21,14,14,12.20
2015,02,21,14,15,12.20
2015,02,21,14,16,12.20
2015,02,21,14,17,12.20
2015,02,21,14,18,12.20
2015,02,21,14,19,12.20
2015,02,21,14,20,12.10
2015,02,21,14,21,12.10
2015,02,21,14,22,12.10
2015,02,21,14,23,12.10
2015,02,21,14,24,12.10
2015,02,21,14,25,12.10
2015,02,21,14,26,12.10
2015,02,21,14,27,12.00
2015,02,21,14,28,12.00
2015,02,21,14,29,12.00
2015,02,21,14,30,12.10
2015,02,21,14,31,12.10
2015,02,21,14,32,12.10
2015,02,21,14,33,12.10
2015,02,21,14,34,12.20
2015,02,21,14,35,12.20
2015,02,21,14,36,12.30
2015,02,21,14,37,12.30
2015,02,21,14,38,12.30
2015,02,21,14,39,12.30
2015,02,21,14,40,12.30
2015,02,21,14,41,12.20
2015,02,21,14,42,12.20
2015,02,21,14,43,12.20
2015,02,21,14,44,12.20
2015,02,21,14,45,12.10
2015,02,21,14,46,12.10
2015,02,21,14,47,12.10
2015,02,21,14,48,12.10
2015,02,21,14,49,12.10
2015,02,21,14,50,12.10
2015,02,21,14,51,12.10
2015,02,21,14,52,12.10
2015,02,21,14,53,12.10
2015,02,21,14,54,12.10
2015,02,21,14,55,12.10
2015,02,21,14,56,12.10
2015,02,21,14,57,12.00
2015,02,21,14,58,12.00
2015,02,21,14,59,12.00
2015,02,21,15,00,12.00
2015,02,21,15,01,12.00
2015,02,21,15,02,12.00
2015,02,21,15,03,12.10
2015,02,21,15,04,12.10
2015,02,21,15,05,12.10
2015,02,21,15,06,12.20
2015,02,21,15,07,12.20
2015,02,21,15,08,12.30
2015,02,21,15,09,12.30
2015,02,21,15,10,12.30
2015,02,21,15,11,12.40
2015,02,21,15,12,12.30
2015,02,21,15,13,12.30
2015,02,21,15,14,12.20
2015,02,21,15,15,12.20
2015,02,21,15,16,12.10
2015,02,21,15,17,12.10
2015,02,21,15,18,12.10
2015,02,21,15,19,12.00
2015,02,21,15,20,11.90
2015,02,21,15,21,11.90
2015,02,21,15,22,11.90
2015,02,21,15,23,11.90
2015,02,21,15,24,11.90
2015,02,21,15,25,11.90
2015,02,21,15,26,11.90
2015,02,21,15,27,11.90
2015,02,21,15,28,11.90
2015,02,21,15,29,11.90
2015,02,21,15,30,11.90
2015,02,21,15,31,11.90
2015,02,21,15,32,11.90
2015,02,21,15,33,11.90
2015,02,21,15,34,11.90
2015,02,21,15,35,11.90
2015,02,21,15,36,11.90
2015,02,21,15,37,11.90
2015,02,21,15,38,11.90
2015,02,21,15,39,11.90
2015,02,21,15,40,11.90
2015,02,21,15,41,11.90
2015,02,21,15,42,12.00
2015,02,21,15,43,12.00
2015,02,21,15,44,12.00
2015,02,21,15,45,11.90
2015,02,21,15,46,11.90
2015,02,21,15,47,11.90
2015,02,21,15,48,11.80
2015,02,21,15,49,11.90
2015,02,21,15,50,11.90
2015,02,21,15,51,11.90
2015,02,21,15,52,11.90
2015,02,21,15,53,11.80
2015,02,21,15,54,11.80
2015,02,21,15,55,11.70
2015,02,21,15,56,11.70
2015,02,21,15,57,11.70
2015,02,21,15,58,11.70
2015,02,21,15,59,11.70
2015,02,21,16,00,11.70
2015,02,21,16,01,11.60
2015,02,21,16,02,11.60
2015,02,21,16,03,11.60
2015,02,21,16,04,11.60
2015,02,21,16,05,11.60
2015,02,21,16,06,11.60
2015,02,21,16,07,11.60
2015,02,21,16,08,11.50
2015,02,21,16,09,11.60
2015,02,21,16,10,11.50
2015,02,21,16,11,11.50
2015,02,21,16,12,11.50
2015,02,21,16,13,11.50
2015,02,21,16,14,11.40
2015,02,21,16,15,11.40
2015,02,21,16,16,11.40
2015,02,21,16,17,11.40
2015,02,21,16,18,11.40
2015,02,21,16,19,11.40
2015,02,21,16,20,11.40
2015,02,21,16,21,11.40
2015,02,21,16,22,11.40
2015,02,21,16,23,11.40
2015,02,21,16,24,11.30
2015,02,21,16,25,11.30
2015,02,21,16,26,11.30
2015,02,21,16,27,11.30
2015,02,21,16,28,11.30
2015,02,21,16,29,11.30
2015,02,21,16,30,11.30
2015,02,21,16,31,11.30
2015,02,21,16,32,11.30
2015,02,21,16,33,11.30
2015,02,21,16,34,11.20
2015,02,21,16,35,11.20
2015,02,21,16,36,11.20
2015,02,21,16,37,11.20
2015,02,21,16,38,11.20
2015,02,21,16,39,11.20
2015,02,21,16,40,11.20
2015,02,21,16,41,11.20
2015,02,21,16,42,11.20
2015,02,21,16,43,11.10
2015,02,21,16,44,11.10
2015,02,21,16,45,11.10
2015,02,21,16,46,11.00
2015,02,21,16,47,11.00
2015,02,21,16,48,11.00
2015,02,21,16,49,11.00
2015,02,21,16,50,10.90
2015,02,21,16,51,10.90
2015,02,21,16,52,10.90
2015,02,21,16,53,10.90
2015,02,21,16,54,10.90
2015,02,21,16,55,10.90
2015,02,21,16,56,10.90
2015,02,21,16,57,10.90
2015,02,21,16,58,10.90
2015,02,21,16,59,10.90
2015,02,21,17,00,10.90
2015,02,21,17,01,10.90
2015,02,21,17,02,10.90
2015,02,21,17,03,10.90
2015,02,21,17,04,10.80
2015,02,21,17,05,10.80
2015,02,21,17,06,10.80
2015,02,21,17,07,10.80
2015,02,21,17,08,10.70
2015,02,21,17,09,10.70
2015,02,21,17,10,10.60
2015,02,21,17,11,10.50
2015,02,21,17,12,10.50
2015,02,21,17,13,10.40
2015,02,21,17,14,10.30
2015,02,21,17,15,10.30
2015,02,21,17,16,10.20
2015,02,21,17,17,10.20
2015,02,21,17,18,10.20
2015,02,21,17,19,10.20
2015,02,21,17,20,10.20
2015,02,21,17,21,10.10
2015,02,21,17,22,10.10
2015,02,21,17,23,10.00
2015,02,21,17,24,9.90
2015,02,21,17,25,9.80
2015,02,21,17,26,9.80
2015,02,21,17,27,9.70
2015,02,21,17,28,9.60
2015,02,21,17,29,9.50
2015,02,21,17,30,9.50
2015,02,21,17,31,9.50
2015,02,21,17,32,9.40
2015,02,21,17,33,9.40
2015,02,21,17,34,9.40
2015,02,21,17,35,9.30
2015,02,21,17,36,9.30
2015,02,21,17,37,9.30
2015,02,21,17,38,9.20
2015,02,21,17,39,9.10
2015,02,21,17,40,9.10
2015,02,21,17,41,9.00
2015,02,21,17,42,8.90
2015,02,21,17,43,8.80
2015,02,21,17,44,8.80
2015,02,21,17,45,8.70
2015,02,21,17,46,8.70